Tracking 28052 objects as of 21-Sep-2023
HD Live streaming from Space Station
objects crossing your sky now

COSMOS 397 DEB

Track COSMOS 397 DEB now!
10-day predictions


NORAD ID: 5017
Int'l Code: 1971-015L
Perigee: 551.1 km
Apogee: 1,684.9 km
Inclination: 65.7 °
Period: 107.5 minutes
Semi major axis: 7488 km
RCS: 0.3524 m2 (medium)
Launch date: February 25, 1971
Source: Commonwealth of Independent States (former USSR) (CIS)
Launch site: TYURATAM MISSILE AND SPACE COMPLEX (TTMTR)

Note: This is SATELLITE DEBRIS
Your satellite tracking list
Your tracking list is empty




NASA's NSSDC Master Catalog

Two Line Element Set (TLE):
1 05017U 71015L   23263.47548141  .00004954  00000-0  16360-2 0  9997
2 05017  65.7123 307.6039 0756987 219.0948 135.3014 13.39575079505020
Source of the keplerian elements: AFSPC